Regional Weather Roundup
Issued by NWS

Home | Current Version | Previous Version | Text Only | Print | Product List | Glossary Off
Versions: 1 2 3 4 5 6 7 8 9 10 11 12 13 14 15 16 17 18 19 20 21 22 23 24 25 26 27 28 29 30 31 32 33 34 35 36 37 38 39 40 41 42 43 44 45 46 47 48 49 50

000
ASUS43 KMPX 301601
RWRMN
WEATHER ROUNDUP FOR MINNESOTA
NATIONAL WEATHER SERVICE TWIN CITIES/CHANHASSEN MN
1100 AM CDT THU MAR 30 2017


NOTE: "FAIR" INDICATES FEW OR NO CLOUDS BELOW 12,000 FEET WITH NO
SIGNIFICANT WEATHER AND/OR OBSTRUCTIONS TO VISIBILITY. N/A MEANS
CURRENT SKY AND/OR WEATHER CONDITIONS ARE NOT AVAILABLE.

MNZ060>063-068>070-301700-
   Twin Cities Metro

CITY           SKY/WX    TMP DP  RH WIND       PRES   REMARKS
TWIN CITIES    CLOUDY    41  33  73 E15       29.89F
ST PAUL        CLOUDY    42  36  79 NE15      29.91F
CRYSTAL        CLOUDY    42  33  70 E12       29.89F
BLAINE         CLOUDY    45  36  70 NE13      29.89F
LAKEVILLE      CLOUDY    37  37 100 NE14      29.87F
EDEN PRAIRIE   CLOUDY    42  35  76 NE13G18   29.87F
SOUTH ST PAUL  CLOUDY    41  36  82 E9G16     29.89F
LAKE ELMO      CLOUDY    41  36  81 NE15      29.90F
$$
MNZ001>005-007-008-013>017-022>024-027-028-301700-
   Northwest Minnesota

CITY           SKY/WX    TMP DP  RH WIND       PRES   REMARKS
BEMIDJI        MOSUNNY   36  35  96 CALM      29.96F
HALLOCK        PTSUNNY   43  39  87 S14       29.91S
ROSEAU         CLOUDY    46  39  76 S7        29.94S
WARROAD        CLOUDY    45  39  81 SW7       29.95S
THIEF RVR FALL CLOUDY    39  37  92 S7        29.95S FOG
CROOKSTON      PTSUNNY   43  39  87 S10       29.94F
FOSSTON        CLOUDY    37  37 100 CALM      29.95S FOG
DETROIT LAKES  MOSUNNY   43  36  75 E6        29.93F
MOORHEAD       SUNNY     45  37  76 SE6       29.94F
PARK RAPIDS    SUNNY     45  33  63 VRB5      29.93S
MAHNOMEN       CLOUDY    37  37  99 E6        29.94F
$$
MNZ006-009>011-018-025>026-301700-
   North Central Minnesota

CITY           SKY/WX    TMP DP  RH WIND       PRES   REMARKS
BAUDETTE       SUNNY     44  34  67 VRB7      29.95F
FLAG ISLAND    CLOUDY    34  30  86 SE9       29.95S WCI  26
INTL FALLS     SUNNY     44  31  60 CALM      29.98F
WASKISH        SUNNY     48  37  66 CALM      29.95F
BIG FORK       SUNNY     45  34  65 SE3       29.97S
LONGVILLE      MOSUNNY   36  36 100 CALM      29.95F
GRAND RAPIDS   MOSUNNY   37  32  82 CALM      29.98F
CRANE LAKE     SUNNY     41  28  60 CALM      30.01F
ORR            SUNNY     45  27  49 CALM      29.96F
COOK             N/A     45  32  61 CALM      29.98F
WALKER         FOG       30  29  95 NE5       29.97R VSB 3/4 WCI  25
$$
MNZ012-019>021-037-301700-
   Northeast Minnesota

CITY           SKY/WX    TMP DP  RH WIND       PRES   REMARKS
DULUTH         MOSUNNY   42  31  64 SE13      29.97F
ELY            SUNNY     43  28  56 E6        29.99F
HIBBING        SUNNY     42  30  62 SE6       29.97F
EVELETH        SUNNY     45  28  53 E7        29.98F
DULUTH HARBOR  SUNNY     37  34  87 NE20      30.02F
TWO HARBORS    SUNNY     45  34  65 E13       29.99F
GRAND MARAIS     N/A     37  29  72 E12G21    30.06F
G MARAIS ARPRT CLOUDY    36  19  51 E8        30.02F
$$
MNZ029>031-032-039>041-046>048-054>057-064-301700-
   West Central Minnesota

CITY           SKY/WX    TMP DP  RH WIND       PRES   REMARKS
FERGUS FALLS   SUNNY     45  36  70 SE12      29.94F
WHEATON        MOSUNNY   46  36  66 E13G18    29.93S
MORRIS         PTSUNNY   46  37  71 E20       29.89F
ALEXANDRIA     PTSUNNY   44  33  65 E17       29.91F
ELBOW LAKE     FAIR      45  36  69 SE10      29.91F HAZE
WADENA         SUNNY     45  34  65 E12       29.92S
GLENWOOD       MOSUNNY   43  36  75 E16       29.91S
APPLETON       CLOUDY    45  37  76 E14       29.89F
BENSON         CLOUDY    46  34  61 SE13      29.91F
ORTONVILLE     CLOUDY    43  36  75 E15       29.90S
MADISON        CLOUDY    45  41  87 E12       29.89F
WILLMAR        PTSUNNY   43  37  81 E12       29.90F
$$
MNZ033>034-036-042>043-049>051-058-059-301700-
   Central Minnesota

CITY           SKY/WX    TMP DP  RH WIND       PRES   REMARKS
ST CLOUD       CLOUDY    41  32  70 E12       29.91F
SAUK CENTRE    CLOUDY    42  33  70 E14       29.91F
PAYNESVILLE    CLOUDY    41  32  71 E14       29.91S
AITKIN         MOSUNNY   43  32  65 E7        29.94F
PINE RIVER     MOSUNNY   39  36  87 SE5       29.98F
BRAINERD       SUNNY     42  32  67 E8        29.95F
STAPLES        SUNNY     45  32  61 E7        29.93F
LONG PRAIRIE   CLOUDY    43  32  65 NE12      29.92F
LITTLE FALLS   CLOUDY    41  32  70 E7        29.93F
LITCHFIELD     CLOUDY    43  36  75 E14       29.89F
BUFFALO        CLOUDY    42  33  72 NE16      29.90F
MAPLE LAKE     CLOUDY    43  35  74 E13       29.91F
HUTCHINSON     CLOUDY    41  38  88 NE16      29.89F
$$
MNZ037-044-045-052-053-301700-
   East Central Minnesota

CITY           SKY/WX    TMP DP  RH WIND       PRES   REMARKS
PRINCETON      CLOUDY    43  32  65 NE9       29.92F
MORA           CLOUDY    41  32  70 E8        29.95F
CAMBRIDGE      CLOUDY    43  30  61 NE10      29.91F
RUSH CITY      CLOUDY    40  31  69 NE7       29.94F
MOOSE LAKE     CLOUDY    41  32  70 E8        29.95F
CLOQUET        MOSUNNY   37  30  75 E10       29.97F
MCGREGOR       CLOUDY    41  32  70 E9        29.96F
$$
MNZ071>073-080-081-089-090-097-098-301700-
   Southwest Minnesota

CITY           SKY/WX    TMP DP  RH WIND       PRES   REMARKS
MONTEVIDEO     CLOUDY    43  37  81 E15       29.89S
GRANITE FALLS  CLOUDY    43  38  80 NE10      29.90S
CANBY          CLOUDY    42  38  85 SE9       29.89S
MARSHALL       CLOUDY    40  37  89 E13       29.87F
REDWOOD FALLS  CLOUDY    41  36  82 NE12G18   29.86F
OLIVIA         CLOUDY    41  36  81 NE14G20   29.87F
PIPESTONE      CLOUDY    39  34  81 E14G20    29.82F
WINDOM         CLOUDY    37  37 100 NE15      29.82F FOG
WORTHINGTON    CLOUDY    38  36  92 NE18      29.81F
JACKSON          N/A     36  36 100 NE13G20   29.82F FOG
TRACY          CLOUDY    40  39  97 E13G18    29.86S
SLAYTON        CLOUDY    36  36  99 NE15      29.84F FOG
$$
MNZ065>067-074>077-082>085-091>093-301700-
   South Central Minnesota

CITY           SKY/WX    TMP DP  RH WIND       PRES   REMARKS
MANKATO        CLOUDY    39  35  86 NE14      29.85F
NEW ULM        CLOUDY    39  36  87 NE13      29.84F
ST JAMES       CLOUDY    39  37  93 NE15      29.84F
FAIRMONT       CLOUDY    38  36  92 NE14      29.82F
GLENCOE        CLOUDY    42  40  93 NE9G18    29.87F
FARIBAULT      CLOUDY    37  36  93 NE9G16    29.86S
OWATONNA       CLOUDY    37  36  93 NE12G23   29.83S
WASECA         CLOUDY    37  36  93 NE15G21   29.85S
ALBERT LEA     CLOUDY    37  37 100 NE14      29.80S
$$
MNZ078>079-086>088-094>096-301700-
   Southeast Minnesota

CITY           SKY/WX    TMP DP  RH WIND       PRES   REMARKS
ROCHESTER      CLOUDY    38  36  92 E18       29.80F
RED WING       CLOUDY    39  36  87 E8G17     29.86F
STANTON        CLOUDY    40  36  84 NE13      29.85R
DODGE CENTER   CLOUDY    37  36  93 NE18      29.81R
WINONA         CLOUDY    37  36  93 E14G20    29.86S
AUSTIN         CLOUDY    37  36  93 E17       29.79R
PRESTON        CLOUDY    36  34  91 NE14G22   29.80S
$$
ABBREVIATIONS USED IN REMARKS
   TC - TEMPERATURES IN CELSIUS
  WCI - WIND CHILL INDEX
   HX - HEAT INDEX
  VSB - VISIBILITY
$$




USA.gov is the U.S. government's official web portal to all federal, state and local government web resources and services.